sat.trackr.live / text

‹ back to catalog

STARLINK-37231

NORAD 68624 · 2026-073Y

PAYLOAD ACTIVE UNKNOWN

§ Identity

Operator
Country
US
Launch date
2026-04-07
Launch site
AFWTR
Launch vehicle
Mass (kg)
RCS (m²)

Purposes: comms

External: N2YO · Heavens-Above · Gunter

§ Orbital elements

Epoch: 2026-05-25T04:00:03.998880Z

Period
92.63 min
Inclination
97.2846°
Eccentricity
0.0001695
Mean motion
15.54534567 rev/d
Perigee alt
402.4 km
Apogee alt
404.7 km
Semi-major
6,781.6 km
B*
-3.5562e-2
RAAN
344.6235°
Arg perigee
96.6126°
Mean anomaly
135.6369°
Rev number
588

§ Raw data

STARLINK-372311 68624U 26073Y   26145.16671295 -.02085347  00000+0 -35562-1 0  99912 68624  97.2846 344.6235 0001695  96.6126 135.6369 15.54534567  5881

JSON: /api/v1/satellites/68624 · /tle

For live sub-satellite position, see the globe view (requires WebGL).

§ Visibility from observer

Set your observer location to see the next 7 days of passes ≥ 10°. The values pass through the URL so the page stays shareable.

No JS? Fill the form by hand. The geolocation button needs JavaScript.